Вернуться в каталог

STARLINK-32189

АктивенСвязьVLEO
NORAD 60317·PAYLOAD·🇺🇸 United States

Запущен Jul 28, 2024 с Vandenberg Space Force Base

Loading…

Ближайшие Пролёты (ближайшие 24 часа)

TLE

СвежийSource: CelesTrak SupGP

Эпоха: Sep 14, 2026, 14:08 UTC

1 60317C 24133S   26257.58937500  .00056455  00000+0  16679-2 0  2571
2 60317  53.1559 137.2084 0001188 104.6337 341.6204 15.34364876    12

Отслеживайте STARLINK-32189 в реальном времени с AllMySat

Download on the App Store